CDT,Max TemperatureF,Mean TemperatureF,Min TemperatureF,Max Dew PointF,MeanDew PointF,Min DewpointF,Max Humidity, Mean Humidity, Min Humidity, Max Sea Level PressureIn, Mean Sea Level PressureIn, Min Sea Level PressureIn, Max VisibilityMiles, Mean VisibilityMiles, Min VisibilityMiles, Max Wind SpeedMPH, Mean Wind SpeedMPH, Max Gust SpeedMPH,PrecipitationIn, CloudCover, Events, WindDirDegrees
2013-9-1,82,72,62,68,62,56,96,72,43,30.03,29.94,29.81,10,10,5,22,8,39,0.15,2,Rain-Thunderstorm,343
2013-9-2,78,66,54,59,55,50,99,75,39,30.12,30.07,30.04,10,10,10,12,3,,0.00,0,,1
2013-9-3,84,67,50,68,58,50,100,78,44,30.12,30.07,30.01,10,10,10,9,2,,0.00,0,,196
2013-9-4,91,76,61,68,63,56,97,69,31,30.15,30.11,30.04,10,10,10,9,2,,0.00,0,,203
2013-9-5,85,77,69,70,66,62,93,72,46,30.19,30.16,30.11,10,10,7,14,4,18,0.02,3,Rain-Thunderstorm,188
2013-9-6,94,80,68,71,67,64,91,67,39,30.11,30.01,29.89,10,10,4,21,7,26,0.00,0,,175
2013-9-7,86,78,69,78,72,68,98,84,71,29.96,29.92,29.88,10,8,0,15,3,23,0.00,0,Fog-Rain-Thunderstorm,210
2013-9-8,85,77,69,74,71,69,99,87,64,29.97,29.91,29.83,10,7,1,12,4,17,0.00,2,,80
2013-9-9,97,83,69,71,65,58,97,63,29,29.84,29.78,29.73,10,8,4,22,7,32,0.00,0,,194
2013-9-10,87,76,64,70,65,61,97,73,44,30.04,29.95,29.85,10,10,7,15,3,17,0.03,2,,23
2013-9-11,89,76,62,66,60,46,93,66,23,30.12,30.10,30.04,10,10,5,12,1,,0.00,1,,315
2013-9-12,79,68,56,62,48,38,90,52,23,30.27,30.21,30.12,10,10,7,16,5,22,0.00,1,,15
2013-9-13,76,62,48,51,46,40,94,62,27,30.27,30.19,30.09,10,10,7,7,2,,0.00,0,,89
2013-9-14,77,62,47,59,49,44,87,62,31,30.10,29.99,29.86,10,10,10,18,6,26,0.01,3,Rain,183
2013-9-15,71,64,54,59,55,51,88,69,50,30.29,30.06,29.83,10,10,10,22,9,29,0.00,6,,19
2013-9-16,72,59,46,54,49,44,95,73,37,30.37,30.29,30.21,10,10,7,12,4,17,0.00,2,,106
2013-9-17,69,62,56,66,59,50,94,89,79,30.23,30.06,29.90,10,6,2,14,8,18,0.08,8,Rain,156
2013-9-18,90,80,69,69,67,66,91,70,46,29.89,29.77,29.69,10,9,5,21,12,25,0.00,4,,181
2013-9-19,79,69,59,68,61,46,84,65,39,29.98,29.79,29.66,10,10,10,18,10,29,0.03,2,Rain-Thunderstorm,265
2013-9-20,69,58,45,52,45,33,90,65,27,30.04,29.99,29.96,10,10,10,16,8,24,0.00,2,,305
2013-9-21,77,56,37,49,41,34,95,63,23,30.03,29.96,29.88,10,10,0,9,1,,0.00,0,Fog,171
2013-9-22,84,68,54,53,48,42,85,55,23,29.89,29.85,29.80,10,10,10,24,8,31,0.00,0,,171
2013-9-23,81,68,54,53,47,40,83,54,23,29.87,29.83,29.77,10,10,10,24,11,30,0.00,0,,153
2013-9-24,75,66,56,56,54,48,92,72,45,29.93,29.89,29.82,10,10,7,9,4,,0.08,3,Rain-Thunderstorm,77
2013-9-25,80,64,49,60,53,48,95,68,34,29.95,29.88,29.77,10,9,4,16,4,21,0.00,0,,135
2013-9-26,89,76,63,62,57,48,90,58,26,29.84,29.80,29.75,10,10,7,26,13,37,0.00,0,,157
2013-9-27,90,79,68,63,58,49,82,53,25,29.85,29.81,29.75,10,10,7,29,14,36,0.01,1,Rain-Thunderstorm,166
2013-9-28,74,60,46,65,50,37,91,68,33,30.02,29.86,29.66,10,10,2,21,12,30,0.08,4,Rain,257
2013-9-29,80,60,41,48,40,34,93,54,20,30.02,29.93,29.84,10,10,10,23,6,31,0.00,0,,194
2013-9-30,83,70,57,49,46,41,70,46,23,29.84,29.73,29.65,10,10,10,23,14,29,0.00,0,,190